| time (UTC) | temp F | wind direction | speed MPH | gust MPH | rain 1hr in | rain 24hr in | rain mn in | humidity % | barometer mb |
| 20260509151530 | 55 | 352 | 0.0 | 4.0 | 0.00 | 0.00 | 0.00 | 71 | 1025.3 |
| 20260509150031 | 56 | 330 | 0.0 | 4.0 | 0.00 | 0.00 | 0.00 | 70 | 1025.4 |
| 20260509144532 | 56 | 232 | 0.0 | 0.0 | 0.00 | 0.00 | 0.00 | 71 | 1025.4 |
| 20260509141532 | 50 | 247 | 0.0 | 1.0 | 0.00 | 0.00 | 0.00 | 84 | 1025.4 |
| 20260509140031 | 48 | 247 | 0.0 | 1.0 | 0.00 | 0.00 | 0.00 | 87 | 1025.3 |
| 20260509134528 | 46 | 247 | 0.0 | 0.0 | 0.00 | 0.00 | 0.00 | 87 | 1025.3 |
| 20260509133028 | 46 | 247 | 0.0 | 1.0 | 0.00 | 0.00 | 0.00 | 86 | 1025.3 |
| 20260509131529 | 46 | 247 | 0.0 | 1.0 | 0.00 | 0.00 | 0.00 | 84 | 1025.1 |
| 20260509130032 | 47 | 247 | 0.0 | 1.0 | 0.00 | 0.00 | 0.00 | 81 | 1024.9 |
| 20260509124606 | 50 | 246 | 0.0 | 0.0 | 0.00 | 0.00 | 0.00 | 78 | 1024.9 |
| 20260509123031 | 52 | 206 | 0.0 | 2.0 | 0.00 | 0.00 | 0.00 | 77 | 1024.8 |
| 20260509121527 | 52 | 242 | 0.0 | 4.0 | 0.00 | 0.00 | 0.00 | 76 | 1024.7 |
| 20260509120031 | 52 | 252 | 0.0 | 4.0 | 0.00 | 0.00 | 0.00 | 78 | 1024.7 |
| 20260509114531 | 50 | 247 | 0.0 | 5.0 | 0.00 | 0.00 | 0.00 | 82 | 1024.6 |
| 20260509113030 | 48 | 243 | 0.0 | 4.0 | 0.00 | 0.00 | 0.00 | 85 | 1024.6 |
| 20260509110031 | 48 | 247 | 0.0 | 1.0 | 0.00 | 0.00 | 0.00 | 81 | 1024.7 |
| 20260509104643 | 50 | 247 | 0.0 | 1.0 | 0.00 | 0.00 | 0.00 | 78 | 1024.7 |
| 20260509103031 | 52 | 247 | 0.0 | 1.0 | 0.00 | 0.00 | 0.00 | 77 | 1024.8 |
| 20260509101539 | 52 | 249 | 0.0 | 3.0 | 0.00 | 0.00 | 0.00 | 76 | 1024.8 |
| 20260509100031 | 52 | 226 | 0.0 | 3.0 | 0.00 | 0.00 | 0.00 | 76 | 1024.8 |
| 20260509094603 | 52 | 231 | 0.0 | 3.0 | 0.00 | 0.00 | 0.00 | 76 | 1024.9 |
| 20260509093030 | 53 | 252 | 0.0 | 3.0 | 0.00 | 0.00 | 0.00 | 76 | 1025.0 |
| 20260509091531 | 51 | 241 | 0.0 | 4.0 | 0.00 | 0.00 | 0.00 | 79 | 1025.0 |
| 20260509090029 | 50 | 255 | 0.0 | 4.0 | 0.00 | 0.00 | 0.00 | 80 | 1025.1 |
| 20260509084531 | 50 | 247 | 0.0 | 2.0 | 0.00 | 0.00 | 0.00 | 79 | 1025.2 |
| 20260509083033 | 51 | 247 | 0.0 | 2.0 | 0.00 | 0.00 | 0.00 | 76 | 1025.4 |
| 20260509081604 | 53 | 247 | 0.0 | 1.0 | 0.00 | 0.00 | 0.00 | 73 | 1025.5 |
| 20260509073105 | 54 | 252 | 0.0 | 3.0 | 0.00 | 0.00 | 0.00 | 72 | 1025.6 |
| 20260509071531 | 53 | 256 | 0.0 | 4.0 | 0.00 | 0.00 | 0.00 | 73 | 1025.8 |
| 20260509070028 | 53 | 249 | 0.0 | 2.0 | 0.00 | 0.00 | 0.00 | 73 | 1025.9 |
| 20260509064530 | 54 | 246 | 0.0 | 3.0 | 0.00 | 0.00 | 0.00 | 71 | 1026.1 |
| 20260509063029 | 54 | 248 | 0.0 | 2.0 | 0.00 | 0.00 | 0.00 | 71 | 1026.1 |
| 20260509061534 | 55 | 255 | 0.0 | 2.0 | 0.00 | 0.00 | 0.00 | 70 | 1026.0 |
| 20260509060145 | 54 | 257 | 0.0 | 4.0 | 0.00 | 0.00 | 0.00 | 70 | 1026.0 |
| 20260509054529 | 54 | 257 | 0.0 | 3.0 | 0.00 | 0.00 | 0.00 | 71 | 1026.0 |
| 20260509053032 | 53 | 223 | 0.0 | 3.0 | 0.00 | 0.00 | 0.00 | 71 | 1025.8 |
| 20260509051607 | 55 | 247 | 0.0 | 1.0 | 0.00 | 0.00 | 0.00 | 67 | 1025.7 |
| 20260509050104 | 55 | 243 | 0.0 | 4.0 | 0.00 | 0.00 | 0.00 | 67 | 1025.7 |
| 20260509044531 | 55 | 270 | 0.0 | 1.0 | 0.00 | 0.00 | 0.00 | 66 | 1025.5 |
| 20260509043106 | 56 | 244 | 0.0 | 1.0 | 0.00 | 0.00 | 0.00 | 64 | 1025.3 |
| 20260509041530 | 57 | 234 | 0.0 | 3.0 | 0.00 | 0.00 | 0.00 | 61 | 1025.1 |
| 20260509034530 | 58 | 247 | 0.0 | 5.0 | 0.00 | 0.00 | 0.00 | 59 | 1024.7 |
| 20260509033031 | 59 | 246 | 0.0 | 4.0 | 0.00 | 0.00 | 0.00 | 58 | 1024.5 |
| 20260509031531 | 59 | 244 | 1.0 | 5.0 | 0.00 | 0.00 | 0.00 | 57 | 1024.3 |
| 20260509030031 | 59 | 244 | 0.0 | 5.0 | 0.00 | 0.00 | 0.00 | 57 | 1024.1 |
| 20260509024529 | 60 | 245 | 0.0 | 5.0 | 0.00 | 0.00 | 0.00 | 55 | 1024.0 |
| 20260509020027 | 63 | 251 | 1.0 | 6.0 | 0.00 | 0.00 | 0.00 | 51 | 1023.6 |
| 20260509014530 | 64 | 251 | 1.0 | 15.0 | 0.00 | 0.00 | 0.00 | 49 | 1023.5 |
| 20260509013026 | 64 | 252 | 1.0 | 10.0 | 0.00 | 0.00 | 0.00 | 48 | 1023.6 |
| 20260509011531 | 65 | 249 | 2.0 | 9.0 | 0.00 | 0.00 | 0.00 | 48 | 1023.5 |
| 20260509004531 | 66 | 244 | 2.0 | 10.0 | 0.00 | 0.00 | 0.00 | 45 | 1023.4 |
| 20260509001531 | 67 | 251 | 1.0 | 8.0 | 0.00 | 0.00 | 0.00 | 42 | 1023.3 |
| 20260508234529 | 67 | 259 | 1.0 | 7.0 | 0.00 | 0.00 | 0.00 | 40 | 1023.3 |
| 20260508233104 | 67 | 267 | 0.0 | 7.0 | 0.00 | 0.00 | 0.00 | 39 | 1023.3 |
| 20260508231532 | 67 | 262 | 1.0 | 9.0 | 0.00 | 0.00 | 0.00 | 41 | 1023.3 |
| 20260508230031 | 66 | 263 | 1.0 | 10.0 | 0.00 | 0.00 | 0.00 | 42 | 1023.3 |
| 20260508224531 | 66 | 263 | 1.0 | 6.0 | 0.00 | 0.00 | 0.00 | 44 | 1023.4 |
| 20260508221529 | 64 | 269 | 1.0 | 8.0 | 0.00 | 0.00 | 0.00 | 47 | 1023.4 |
| 20260508220028 | 64 | 278 | 1.0 | 6.0 | 0.00 | 0.00 | 0.00 | 48 | 1023.4 |
| 20260508213031 | 63 | 275 | 1.0 | 8.0 | 0.00 | 0.00 | 0.00 | 50 | 1023.4 |
| 20260508211529 | 62 | 278 | 1.0 | 7.0 | 0.00 | 0.00 | 0.00 | 51 | 1023.4 |
| 20260508210031 | 62 | 278 | 1.0 | 8.0 | 0.00 | 0.00 | 0.00 | 52 | 1023.4 |
| 20260508203031 | 62 | 273 | 1.0 | 7.0 | 0.00 | 0.00 | 0.00 | 52 | 1023.3 |
| 20260508201532 | 61 | 277 | 2.0 | 11.0 | 0.00 | 0.00 | 0.00 | 53 | 1023.3 |
| 20260508200029 | 61 | 286 | 2.0 | 10.0 | 0.00 | 0.00 | 0.00 | 54 | 1023.2 |
| 20260508194529 | 61 | 281 | 1.0 | 10.0 | 0.00 | 0.00 | 0.00 | 55 | 1023.2 |
| 20260508191529 | 60 | 280 | 1.0 | 7.0 | 0.00 | 0.00 | 0.00 | 55 | 1023.2 |
| 20260508190030 | 60 | 275 | 1.0 | 6.0 | 0.00 | 0.00 | 0.00 | 57 | 1023.3 |
| 20260508184529 | 58 | 277 | 0.0 | 13.0 | 0.00 | 0.00 | 0.00 | 59 | 1023.4 |
| 20260508183106 | 57 | 277 | 1.0 | 12.0 | 0.00 | 0.00 | 0.00 | 60 | 1023.3 |
| 20260508181534 | 54 | 273 | 1.0 | 8.0 | 0.00 | 0.00 | 0.00 | 64 | 1023.3 |
| 20260508180106 | 52 | 272 | 1.0 | 12.0 | 0.00 | 0.00 | 0.00 | 66 | 1023.1 |
| 20260508173029 | 51 | 275 | 1.0 | 8.0 | 0.00 | 0.00 | 0.00 | 66 | 1022.8 |
| 20260508171605 | 52 | 273 | 1.0 | 7.0 | 0.00 | 0.00 | 0.00 | 66 | 1022.8 |
| 20260508170031 | 52 | 272 | 1.0 | 10.0 | 0.00 | 0.00 | 0.00 | 66 | 1022.7 |
| 20260508164530 | 52 | 273 | 0.0 | 7.0 | 0.00 | 0.00 | 0.00 | 68 | 1022.8 |
| 20260508163029 | 52 | 277 | 0.0 | 8.0 | 0.00 | 0.00 | 0.00 | 68 | 1022.9 |
| 20260508161605 | 53 | 268 | 1.0 | 11.0 | 0.00 | 0.00 | 0.00 | 67 | 1022.8 |
| 20260508154532 | 53 | 259 | 1.0 | 6.0 | 0.00 | 0.00 | 0.00 | 68 | 1022.7 |
| 20260508153031 | 53 | 267 | 1.0 | 8.0 | 0.00 | 0.00 | 0.00 | 68 | 1022.5 |